Humidity-temperature Sensor

Selected Measurement Type: Relative Humidity

 
Relative Humidity [%]     6 entries per hour
Showing data from 6/24/2019 (00:00:00 Z) to 6/17/2019 (10:40:00 Z)
Previous Next [ Day | 3-Days | 7-Days ]
First Last
Prev [ Day | 3-Days | 7-Days ] Next
First Last

Start Time:     :
End Time:     :     
Time (in GMT) :00 :50 :40 :30 :20 :10
Previous Next [ Day | 3-Days | 7-Days ]
First Last
Prev [ Day | 3-Days | 7-Days ] Next
First Last


123 => good data
MM => data is determined as missing
-- => data not received/configured
Back to Top Back to Top
6/24/2019 00:00 to 23:10 -- -- -- -- -- --
6/23/2019 23:00 to 22:10 -- -- -- -- -- --
6/23/2019 22:00 to 21:10 -- -- -- -- -- --
6/23/2019 21:00 to 20:10 -- -- -- -- -- --
6/23/2019 20:00 to 19:10 81.15 80.16 80.86 80.82 79.65 80.68
6/23/2019 19:00 to 18:10 -- -- -- -- -- --
6/23/2019 18:00 to 17:10 -- -- -- -- -- --
6/23/2019 17:00 to 16:10 -- -- -- -- -- --
6/23/2019 16:00 to 15:10 -- -- -- -- -- --
6/23/2019 15:00 to 14:10 -- -- -- -- -- --
6/23/2019 14:00 to 13:10 -- -- -- -- -- --
6/23/2019 13:00 to 12:10 -- -- -- -- -- --
6/23/2019 12:00 to 11:10 -- -- -- -- -- --
6/23/2019 11:00 to 10:10 -- -- -- -- -- --
6/23/2019 10:00 to 9:10 -- -- -- -- -- --
6/23/2019 09:00 to 8:10 -- -- -- -- -- --
6/23/2019 08:00 to 7:10 -- -- -- -- -- --
6/23/2019 07:00 to 6:10 -- -- -- -- -- --
6/23/2019 06:00 to 5:10 -- -- -- -- -- --
6/23/2019 05:00 to 4:10 -- -- -- -- -- --
6/23/2019 04:00 to 3:10 -- -- -- -- -- --
6/23/2019 03:00 to 2:10 -- -- -- -- -- --
6/23/2019 02:00 to 1:10 -- -- -- -- -- --
6/23/2019 01:00 to 0:10 -- -- -- -- -- --
6/23/2019 00:00 to 23:10 81.43 81.17 83.17 82.25 82.09 83.11
6/22/2019 23:00 to 22:10 83.81 81.99 82.93 83.48 81.68 81.74
6/22/2019 22:00 to 21:10 -- -- -- -- -- --
6/22/2019 21:00 to 20:10 -- -- -- -- -- --
6/22/2019 20:00 to 19:10 -- -- -- -- -- --
6/22/2019 19:00 to 18:10 -- -- -- -- -- --
6/22/2019 18:00 to 17:10 -- -- -- -- -- --
6/22/2019 17:00 to 16:10 -- -- -- -- -- --
6/22/2019 16:00 to 15:10 -- -- -- -- -- --
6/22/2019 15:00 to 14:10 -- -- -- -- -- --
6/22/2019 14:00 to 13:10 -- -- -- -- -- --
6/22/2019 13:00 to 12:10 -- -- -- -- -- --
6/22/2019 12:00 to 11:10 -- -- -- -- -- --
6/22/2019 11:00 to 10:10 84.89 85.63 85.86 85.61 86.80 89.75
6/22/2019 10:00 to 9:10 85.63 86.04 86.08 85.98 87.00 86.61
6/22/2019 09:00 to 8:10 84.32 84.47 84.79 85.37 85.61 84.75
6/22/2019 08:00 to 7:10 84.73 83.95 85.35 85.35 84.81 84.34
6/22/2019 07:00 to 6:10 84.61 84.51 84.96 82.97 83.77 83.58
6/22/2019 06:00 to 5:10 82.97 82.68 83.91 83.11 82.81 82.27
6/22/2019 05:00 to 4:10 83.71 85.90 84.85 84.90 84.73 83.03
6/22/2019 04:00 to 3:10 83.15 82.95 84.18 83.44 83.20 82.42
6/22/2019 03:00 to 2:10 83.85 82.99 84.20 81.52 80.37 80.90
6/22/2019 02:00 to 1:10 81.03 80.92 79.16 79.69 80.08 81.23
6/22/2019 01:00 to 0:10 81.35 82.15 81.37 82.07 81.43 82.60
6/22/2019 00:00 to 23:10 82.85 82.87 81.99 82.32 82.75 83.17
6/21/2019 23:00 to 22:10 83.40 82.97 82.66 82.42 82.32 81.84
6/21/2019 22:00 to 21:10 81.99 82.38 81.99 81.46 81.35 82.34
6/21/2019 21:00 to 20:10 82.97 82.09 80.16 82.09 80.21 80.74
6/21/2019 20:00 to 19:10 78.28 80.62 80.21 80.88 80.98 80.96
6/21/2019 19:00 to 18:10 81.39 80.08 80.16 80.17 82.09 81.66
6/21/2019 18:00 to 17:10 81.91 79.12 80.23 80.57 80.53 81.88
6/21/2019 17:00 to 16:10 82.99 80.92 81.74 82.17 83.07 82.17
6/21/2019 16:00 to 15:10 81.74 82.23 81.89 84.42 86.14 84.03
6/21/2019 15:00 to 14:10 85.00 85.41 83.60 84.83 83.77 83.85
6/21/2019 14:00 to 13:10 83.85 84.03 83.05 83.46 84.26 85.08
6/21/2019 13:00 to 12:10 82.23 83.79 83.09 82.72 82.99 83.65
6/21/2019 12:00 to 11:10 84.24 82.93 83.18 83.63 84.03 84.67
6/21/2019 11:00 to 10:10 84.53 85.28 84.73 85.94 86.92 87.41
6/21/2019 10:00 to 9:10 82.74 82.91 82.44 83.77 84.85 84.51
6/21/2019 09:00 to 8:10 83.50 84.20 84.89 85.65 86.43 86.55
6/21/2019 08:00 to 7:10 87.41 89.50 88.75 88.40 87.05 89.26
6/21/2019 07:00 to 6:10 86.68 86.23 85.18 85.78 84.67 83.67
6/21/2019 06:00 to 5:10 85.30 84.83 84.89 82.77 82.32 82.91
6/21/2019 05:00 to 4:10 84.26 84.47 87.07 87.21 87.15 87.97
6/21/2019 04:00 to 3:10 87.60 88.56 89.77 89.89 87.19 84.14
6/21/2019 03:00 to 2:10 82.40 82.91 83.13 83.54 83.87 85.86
6/21/2019 02:00 to 1:10 84.53 83.40 84.57 84.71 83.58 83.15
6/21/2019 01:00 to 0:10 85.12 86.29 85.86 84.59 83.75 83.81
6/21/2019 00:00 to 23:10 84.22 85.61 86.35 86.41 86.61 86.04
6/20/2019 23:00 to 22:10 85.20 83.67 84.47 84.92 84.38 84.90
6/20/2019 22:00 to 21:10 85.28 85.39 84.79 85.18 85.26 84.75
6/20/2019 21:00 to 20:10 85.02 85.94 86.90 88.11 87.76 87.66
6/20/2019 20:00 to 19:10 88.05 87.48 86.08 87.07 85.22 88.50
6/20/2019 19:00 to 18:10 87.33 86.84 85.14 85.76 85.14 85.71
6/20/2019 18:00 to 17:10 84.38 84.87 85.69 85.24 86.74 84.12
6/20/2019 17:00 to 16:10 84.85 85.98 85.71 90.38 90.71 90.22
6/20/2019 16:00 to 15:10 89.52 88.44 85.63 87.21 86.23 87.00
6/20/2019 15:00 to 14:10 84.83 87.15 88.77 86.51 85.78 86.74
6/20/2019 14:00 to 13:10 86.33 86.49 87.60 86.68 86.84 87.80
6/20/2019 13:00 to 12:10 88.79 88.77 89.65 90.46 92.62 92.64
6/20/2019 12:00 to 11:10 91.16 89.54 87.88 88.74 89.87 90.32
6/20/2019 11:00 to 10:10 89.65 88.60 90.61 90.59 91.12 91.33
6/20/2019 10:00 to 9:10 91.20 90.73 91.45 91.10 90.44 91.20
6/20/2019 09:00 to 8:10 89.73 90.18 90.75 91.20 90.47 90.55
6/20/2019 08:00 to 7:10 91.30 92.14 91.20 92.35 90.90 89.54
6/20/2019 07:00 to 6:10 89.89 90.34 87.37 85.47 85.63 87.56
6/20/2019 06:00 to 5:10 89.40 88.64 86.33 85.51 86.33 85.82
6/20/2019 05:00 to 4:10 86.02 85.00 85.28 85.14 84.67 85.75
6/20/2019 04:00 to 3:10 85.32 85.39 84.44 83.87 84.69 83.97
6/20/2019 03:00 to 2:10 84.79 83.87 84.53 84.69 85.20 83.91
6/20/2019 02:00 to 1:10 83.95 85.45 84.63 84.53 85.33 85.37
6/20/2019 01:00 to 0:10 84.90 85.00 85.65 85.43 84.98 85.47
6/20/2019 00:00 to 23:10 85.53 87.35 87.45 87.56 87.68 87.91
6/19/2019 23:00 to 22:10 87.19 86.59 86.14 85.98 86.47 85.73
6/19/2019 22:00 to 21:10 85.16 83.89 84.08 84.79 85.35 85.47
6/19/2019 21:00 to 20:10 85.84 85.86 85.37 85.90 85.94 85.35
6/19/2019 20:00 to 19:10 84.24 85.41 84.61 87.04 87.09 86.47
6/19/2019 19:00 to 18:10 87.56 86.00 88.38 88.66 87.72 86.92
6/19/2019 18:00 to 17:10 86.96 87.15 87.72 86.49 87.54 87.21
6/19/2019 17:00 to 16:10 86.43 87.48 87.80 88.05 88.36 86.61
6/19/2019 16:00 to 15:10 87.52 86.47 87.21 86.64 87.43 87.86
6/19/2019 15:00 to 14:10 86.29 87.21 85.78 86.00 85.67 86.45
6/19/2019 14:00 to 13:10 86.43 85.98 85.20 85.35 84.69 85.67
6/19/2019 13:00 to 12:10 85.30 85.35 84.59 85.24 85.94 87.21
6/19/2019 12:00 to 11:10 85.96 86.02 87.13 87.39 86.68 86.70
6/19/2019 11:00 to 10:10 87.21 87.31 87.27 86.64 87.31 86.94
6/19/2019 10:00 to 9:10 85.33 86.51 85.06 85.20 84.83 85.10
6/19/2019 09:00 to 8:10 84.44 83.93 84.69 84.40 84.71 84.24
6/19/2019 08:00 to 7:10 84.89 84.63 84.44 83.71 84.55 84.71
6/19/2019 07:00 to 6:10 84.47 83.87 83.24 83.91 83.75 83.95
6/19/2019 06:00 to 5:10 82.87 84.10 83.69 82.87 83.28 82.79
6/19/2019 05:00 to 4:10 83.42 84.51 83.67 84.16 84.32 85.06
6/19/2019 04:00 to 3:10 85.88 86.82 86.61 87.04 86.76 86.96
6/19/2019 03:00 to 2:10 86.49 86.53 88.81 88.91 90.18 90.83
6/19/2019 02:00 to 1:10 90.38 90.94 91.26 91.75 90.65 90.34
6/19/2019 01:00 to 0:10 88.93 88.89 87.74 88.89 89.44 89.30
6/19/2019 00:00 to 23:10 90.67 90.81 91.04 91.37 89.15 88.42
6/18/2019 23:00 to 22:10 86.92 86.41 86.35 84.61 84.87 85.00
6/18/2019 22:00 to 21:10 85.47 85.88 87.11 88.21 87.25 86.76
6/18/2019 21:00 to 20:10 86.31 86.49 84.08 83.97 83.28 84.24
6/18/2019 20:00 to 19:10 83.95 85.45 85.90 87.02 87.47 87.04
6/18/2019 19:00 to 18:10 87.17 88.40 88.46 89.11 89.11 89.48
6/18/2019 18:00 to 17:10 91.04 92.39 93.39 94.19 93.74 93.17
6/18/2019 17:00 to 16:10 93.11 93.70 94.25 94.03 93.93 92.59
6/18/2019 16:00 to 15:10 93.35 93.05 93.13 91.86 91.63 88.85
6/18/2019 15:00 to 14:10 88.97 89.44 91.45 90.49 88.93 90.47
6/18/2019 14:00 to 13:10 90.73 90.14 91.26 90.90 92.06 91.45
6/18/2019 13:00 to 12:10 91.71 93.09 94.25 95.69 96.01 96.48
6/18/2019 12:00 to 11:10 96.57 95.63 94.40 95.56 95.34 95.81
6/18/2019 11:00 to 10:10 94.93 95.30 94.38 95.60 95.85 95.65
6/18/2019 10:00 to 9:10 94.48 93.84 93.97 93.33 94.23 94.62
6/18/2019 09:00 to 8:10 94.87 94.21 93.80 91.92 90.36 86.66
6/18/2019 08:00 to 7:10 86.29 84.22 85.43 87.11 87.37 88.05
6/18/2019 07:00 to 6:10 88.56 88.66 88.66 89.24 89.75 89.26
6/18/2019 06:00 to 5:10 84.16 84.18 84.14 86.37 86.45 84.69
6/18/2019 05:00 to 4:10 83.97 82.77 83.87 82.03 81.50 80.88
6/18/2019 04:00 to 3:10 82.11 84.65 84.44 84.81 84.51 86.51
6/18/2019 03:00 to 2:10 89.75 86.49 90.49 87.37 84.63 84.30
6/18/2019 02:00 to 1:10 83.42 83.67 83.83 82.97 81.70 82.56
6/18/2019 01:00 to 0:10 81.29 82.56 82.42 82.72 83.52 83.22
6/18/2019 00:00 to 23:10 83.75 84.22 84.16 86.18 87.09 89.36
6/17/2019 23:00 to 22:10 93.82 95.28 97.41 97.57 96.42 91.59
6/17/2019 22:00 to 21:10 85.69 87.29 89.07 89.52 91.82 92.37
6/17/2019 21:00 to 20:10 91.51 90.44 84.81 84.04 86.21 86.47
6/17/2019 20:00 to 19:10 86.10 86.33 85.49 85.76 85.02 86.12
6/17/2019 19:00 to 18:10 88.05 88.07 88.27 85.53 84.12 87.68
6/17/2019 18:00 to 17:10 86.90 85.73 83.99 84.69 89.73 87.07
6/17/2019 17:00 to 16:10 87.13 88.52 90.63 91.12 91.00 93.66
6/17/2019 16:00 to 15:10 88.85 85.08 86.94 89.17 89.01 92.18
6/17/2019 15:00 to 14:10 92.86 93.35 94.89 94.66 95.73 93.86
6/17/2019 14:00 to 13:10 86.84 86.19 87.99 89.58 89.26 89.34
6/17/2019 13:00 to 12:10 89.67 91.28 93.84 94.03 89.17 92.02
6/17/2019 12:00 to 11:10 92.19 90.94 93.17 91.65 89.58 91.43
6/17/2019 11:00 to 10:10 92.57 93.37 94.54 -- -- --